Regional Weather Roundup
Issued by NWS

Home | Current Version | Previous Version | Graphics & Text | Print | Product List | Glossary Off
Versions: 1 2 3 4 5 6 7 8 9 10 11 12 13 14 15 16 17 18 19 20 21 22 23 24 25 26 27 28 29 30 31 32 33 34 35 36 37 38 39 40 41 42 43 44 45 46 47 48 49 50

000
ASUS43 KLSX 201259
RWRMO

WEATHER SUMMARY FOR MISSOURI
NATIONAL WEATHER SERVICE SPRINGFIELD MO
800 AM CDT SAT SEP 20 2014

NOTE: "FAIR" INDICATES FEW OR NO CLOUDS BELOW 12,000 FEET WITH NO
       SIGNIFICANT WEATHER AND/OR OBSTRUCTIONS TO VISIBILITY.
       CURRENT SKY AND/OR WEATHER CONDITIONS ARE NOT AVAILABLE FOR
       CHILLICOTHE AND FARMINGTON.

MOZ001>031-035>038-043-044-053-054-201400-
...NORTHERN AND WESTERN MISSOURI...

CITY           SKY/WX    TMP DP  RH WIND       PRES   REMARKS
KANSAS CTY INT PTCLDY    68  67  96 SW8       29.99R FOG
KANSAS C DTWN  CLEAR     72  67  84 SW6       29.98R HAZE
LEE`S SUMMIT   SUNNY     68  66  93 SW7       30.01R FOG
ST JOSEPH      CLOUDY    67  66  97 N5        29.99R FOG
KIRKSVILLE     CLOUDY    66  64  93 CALM      30.02S FOG

$$
MOZ066>068-077>081-088>096-101>105-201400-
...SOUTHWEST MISSOURI...

CITY           SKY/WX    TMP DP  RH WIND       PRES   REMARKS
SPRINGFIELD    SUNNY     66  64  93 S9        30.05R FOG
JOPLIN         MOSUNNY   68  68 100 S8        30.04R FOG

$$
MOZ032>034-039>042-045>050-055>058-069>072-201400-
...CENTRAL MISSOURI...

CITY           SKY/WX    TMP DP  RH WIND       PRES   REMARKS
COLUMBIA       SUNNY     65  64  97 S5        30.03R
JEFFERSON CITY SUNNY     65  63  93 SE3       30.02R FOG
ROLLA          SUNNY     65  63  93 S10       30.04R FOG
SEDALIA        SUNNY     69  65  86 SW13      30.02R FOG
OSAGE BEACH    SUNNY     64  61  88 CALM      30.04R

$$
MOZ051-052-059>065-201400-
...EAST CENTRAL MISSOURI...

CITY           SKY/WX    TMP DP  RH WIND       PRES   REMARKS
ST LOUIS INTL  PTSUNNY   69  62  78 SW5       30.03R
SPIRIT OF STL  MOSUNNY   62  59  90 CALM      30.02R FOG
ST CHARLES     SUNNY     62  60  93 CALM      30.02R FOG

$$
MOZ072>076-082>087-097>100-106>115-201400-
...SOUTH CENTRAL AND SOUTHEAST MISSOURI...

CITY           SKY/WX    TMP DP  RH WIND       PRES   REMARKS
CAPE GIRARDEAU SUNNY     62  61  96 CALM      30.07R FOG
FARMINGTON     SUNNY     63  61  94 CALM      30.09R
POPLAR BLUFF   SUNNY     63  59  87 CALM      30.06R
WEST PLAINS    SUNNY     64  61  90 CALM      30.10R

$$



USA.gov is the U.S. government's official web portal to all federal, state and local government web resources and services.